星链-34412(STARLINK-34412)

导读

STARLINK-34412是美国于2025年10月22日发射的Starlink星链卫星,星链是SpaceX打造的全球卫星互联网项目,旨在为全球偏远地区、高需求区域提供低成本、低延迟的高速宽带服务。该卫星是星链组网建设中的一员,助力星链完成近地轨道卫星互联网星座的部署拓展。

基本信息
目录编号:
66132
目录名称:
STARLINK-34412
国际标识:
2025-237U
轨道中心:
EARTH
卫星名称:
星链-34412
卫星全名:
星链-34412(STARLINK-34412)
卫星状态:
在轨 (已飞行234 天)
发射日期:
2025-10-22 UTC
国别 :
美国 (US)
星等 :
--
轨道信息
数据来源 国际轨道数据 AOE轨道数据
星历时间 2026-06-13T14:00:02+0800
6小时前
查看轨道信息
2026-06-07T23:00:00+0800
5天前
查看轨道信息
半长轴 6843.386km 6853.424km
偏心率 0.0001337 0.000115
轨道倾角 53.158° 53.159°
近地点辐角 90.754° 72.372°
升交点赤经 315.606° 341.808°
平近点角 257.694° 195.316°
近地点 464.334km 474.498km
远地点 466.164km 476.076km
周期 93.900分钟 94.107分钟
每日圈数 15.335439 15.301762
详细信息
固有亮度:
5
最大亮度:
2.5
卫星平台:
Starlink V1.0
覆盖范围:
全球
运营商:
太空探索技术公司
运营商所在国:
美国
制造商(研发单位):
太空探索技术公司
制造商所在国:
美国
使用方式:
暂无
卫星简介
Starlink 计划是 SpaceX 推出的全球卫星互联网项目,通过发射低轨道卫星,为全球尤其是偏远地区提供高速、低延迟的互联网服务。自 2019 年起,Starlink 已部署数千颗卫星,旨在缩小全球数字鸿沟,推动互联网普及。该项目还为军事、航空等行业提供通信支持,带来广泛经济效益。
2D轨道图
3D轨道图
轨道高度分析图
轨道倾角分析图
轨道综合分析图
查看轨道综合分析图